sat.trackr.live / text

‹ back to catalog

ONEWEB-0032

NORAD 45141 · 2020-008L

PAYLOAD ACTIVE UNKNOWN

§ Identity

Operator
Country
UK
Launch date
2020-02-06
Launch site
TYMSC
Launch vehicle
Mass (kg)
RCS (m²)

Purposes: comms

External: N2YO · Heavens-Above · Gunter

§ Orbital elements

Epoch: 2026-09-20T03:25:57.912096Z

Period
109.89 min
Inclination
87.8910°
Eccentricity
0.0002189
Mean motion
13.10376585 rev/d
Perigee alt
1,220.0 km
Apogee alt
1,223.4 km
Semi-major
7,599.8 km
B*
8.8386e-4
RAAN
17.3673°
Arg perigee
106.0256°
Mean anomaly
254.1112°
Rev number
32,073

§ Raw data

ONEWEB-00321 45141U 20008L   26263.14303139  .00000321  00000+0  88386-3 0  99992 45141  87.8910  17.3673 0002189 106.0256 254.1112 13.10376585320737

JSON: /api/v1/satellites/45141 · /tle

For live sub-satellite position, see the globe view (requires WebGL).

§ Visibility from observer

Set your observer location to see the next 7 days of passes ≥ 10°. The values pass through the URL so the page stays shareable.

No JS? Fill the form by hand. The geolocation button needs JavaScript.